Weather past 2 weeks in Mamoutzou, Mayotte

Now
77 °F

Passing clouds.


Feels Like: 78 °F
Forecast: 73 / 79 °F
Wind: 1 mph from North

Location: Dzaoudzi / Pamanzi Mayotte

Current Time: Oct 2, 2014 at 5:21:16 AM

Latest Report: Oct 2, 2014 at 5:00 AM


Visibility: N/A

Pressure: 29.92 "Hg

Humidity: 83%

Dew point: 72 °F

Location of MamoutzouLocation

Historic Weather in Mamoutzou — Graph

°F

Mamoutzou temperature yesterday

Maximum temperature yesterday: 88 °F (at 2:06 PM)
Minimum temperature yesterday: 77 °F (at 12:00 AM)
Average temperature yesterday: 81 °F

Past Weeks' High & Low Weather Summary

 TemperatureHumidityPressure
High88 °F (Oct 1, 2:06 PM)94% (Sep 17, 4:00 AM)30.09 "Hg (Sep 17, 4:00 AM)
Low70 °F (Sep 17, 4:00 AM)52% (Oct 1, 2:30 PM)29.86 "Hg (Oct 1, 3:00 AM)
Average78 °F75%30.00 "Hg
* Reported Sep 17 4:00 AM — Oct 2 4:00 AM, Mamoutzou, Weather by CustomWeather, © 2014

Note: Actual official high and low records may vary slightly from our data, if they occured in-between our weather recording intervals... More about our weather records

Advertising

Mamoutzou weather history for previous 24 hours

 ConditionsComfort  
Time TempWeatherWind HumidityBarometerVisibility
4:00 AM
Oct 2
75 °FPartly cloudy.2 mph89%29.92 "HgN/A
3:30 AM75 °FMild.No wind83%29.89 "HgN/A
3:00 AM77 °FWarm.1 mph83%29.89 "HgN/A
2:30 AM77 °FWarm.No wind83%29.89 "HgN/A
2:00 AM77 °FWarm.No wind83%29.89 "HgN/A
1:30 AM77 °FWarm.2 mph83%29.89 "HgN/A
1:00 AM75 °FMild.2 mph89%29.89 "HgN/A
12:30 AM75 °FMild.2 mph83%29.92 "HgN/A
12:00 AM75 °FPassing clouds.No wind89%29.92 "HgN/A
11:30 PM
Oct 1
77 °FWarm.No wind79%29.92 "HgN/A
11:00 PM77 °FWarm.2 mph83%29.92 "HgN/A
10:30 PM77 °FWarm.2 mph79%29.95 "HgN/A
10:00 PM79 °FPassing clouds.3 mph79%29.95 "HgN/A
9:30 PM79 °FPassing clouds.3 mph79%29.95 "HgN/A
9:00 PM79 °FWarm.3 mph79%29.95 "HgN/A
8:30 PM79 °FHaze.5 mph79%29.95 "Hg2 mi
8:00 PM79 °FPassing clouds.5 mph74%29.95 "HgN/A
7:30 PM79 °FPassing clouds.6 mph79%29.95 "HgN/A
7:00 PM79 °FPassing clouds.7 mph79%29.92 "HgN/A
6:30 PM79 °FWarm.6 mph79%29.92 "HgN/A
6:04 PM81 °FPassing clouds.6 mph74%29.92 "HgN/A
5:30 PM81 °FScattered clouds.6 mph74%29.92 "HgN/A
5:00 PM81 °FScattered clouds.7 mph74%29.89 "HgN/A
4:30 PM81 °FScattered clouds.6 mph74%29.89 "HgN/A
4:00 PM81 °FScattered clouds.5 mph74%29.89 "HgN/A
3:00 PM88 °FPartly sunny.3 mph55%29.89 "HgN/A
2:30 PM88 °FBroken clouds.10 mph52%29.89 "HgN/A
2:06 PM88 °FScattered showers. Partly sunny.7 mph55%29.89 "HgN/A
1:30 PM86 °FScattered showers. Partly sunny.10 mph55%29.92 "HgN/A
1:00 PM86 °FPartly sunny.10 mph55%29.92 "HgN/A
12:30 PM86 °FPartly sunny.12 mph59%29.92 "HgN/A
12:00 PM86 °FPartly sunny.10 mph59%29.95 "HgN/A
11:30 AM84 °FPartly sunny.12 mph62%29.95 "HgN/A
11:00 AM84 °FPartly sunny.10 mph66%29.95 "HgN/A
10:30 AM84 °FPartly sunny.9 mph66%29.98 "HgN/A
10:00 AM84 °FPartly sunny.9 mph66%29.98 "HgN/A
9:36 AM84 °FBroken clouds.9 mph66%29.98 "HgN/A
9:00 AM82 °FBroken clouds.8 mph70%29.98 "HgN/A
8:30 AM81 °FScattered clouds.7 mph74%29.98 "HgN/A
8:00 AM82 °FScattered clouds.8 mph70%29.98 "HgN/A
7:30 AM81 °FPartly sunny.9 mph74%29.95 "HgN/A
7:00 AM81 °FPartly sunny.6 mph74%29.95 "HgN/A
6:30 AM79 °FBroken clouds.2 mph79%29.92 "HgN/A
6:00 AM79 °FBroken clouds.5 mph79%29.92 "HgN/A
5:30 AM79 °FPartly cloudy.6 mph79%29.92 "HgN/A
5:00 AM79 °FOvercast.10 mph79%29.89 "HgN/A
Weather by CustomWeather, © 2014

See weather overviewHow to use our weather pages